Lone Rock, WI

2:41 PM CST on November 19, 2017 (GMT -0600)
Tri-County Regional

Weather History for KLNR - June, 2013

Change the Weather History Date:

Thursday, June 13, 2013

  Actual Average Record
Temperature  
Mean Temperature 69 °F -  
Max Temperature 79 °F 74 °F 90 °F (2001)
Min Temperature 59 °F 54 °F 46 °F (2012)
Cooling Degree Days 4    
Growing Degree Days 19 (Base 50)    
Moisture  
Dew Point 56 °F    
Average Humidity 67    
Maximum Humidity 96    
Minimum Humidity 24    
Precipitation  
Precipitation 0.00 in - - ()
Sea Level Pressure  
Sea Level Pressure 29.95 in    
Wind  
Wind Speed 5 mph (NNW)    
Max Wind Speed 13 mph    
Max Gust Speed 21 mph    
Visibility 10 miles    
Events      
Averages and records for this station are not official NWS values.
T = Trace of Precipitation, MM = Missing Value Source: NWS Daily Summary

Daily Weather History Graph

Daily Weather History Graph

Search for Another Location

Airport or City:

Trip Planner

Search our weather history database for the weather conditions in past years. The results will help you decide how hot, cold, wet, or windy it might be!

Date:

Astronomy

Jun. 13, 2013 Rise Set
Actual Time 5:20 AM CDT 8:41 PM CDT
Civil Twilight 4:44 AM CDT 9:17 PM CDT
Nautical Twilight 3:58 AM CDT 10:03 PM CDT
Astronomical Twilight 3:01 AM CDT 11:00 PM CDT
Moon 10:03 AM CDT (6/13) 11:40 PM CDT (6/13)
Length of Visible Light 16h 32m
Length of Day
15h 21m
Waxing Crescent, 22% of the Moon is Illuminated
Jun 13
Waxing Crescent
Jun 16
First Quarter
Jun 23
Full
Jun 29
Last Quarter
Jul 8
New

Hourly Weather History & Observations

Time (CDT) Temp. Dew Point Humidity Pressure Visibility Wind Dir Wind Speed Gust Speed Precip Events Conditions
12:56 AM 62.1 °F 57.9 °F 86% 29.78 in 10.0 mi North 5.8 mph - N/A   Clear
1:56 AM 62.1 °F 57.9 °F 86% 29.81 in 10.0 mi NW 8.1 mph - N/A   Partly Cloudy
2:56 AM 62.1 °F 57.9 °F 86% 29.83 in 10.0 mi WNW 3.5 mph - N/A   Overcast
3:56 AM 61.0 °F 57.0 °F 87% 29.84 in 10.0 mi Calm Calm - N/A   Clear
4:56 AM 60.1 °F 57.9 °F 93% 29.86 in 8.0 mi WSW 3.5 mph - N/A   Clear
5:56 AM 59.0 °F 57.9 °F 96% 29.90 in 4.0 mi WSW 4.6 mph - N/A   Clear
6:56 AM 61.0 °F 59.0 °F 93% 29.92 in 6.0 mi Calm Calm - N/A   Clear
7:56 AM 66.9 °F 60.1 °F 79% 29.93 in 10.0 mi North 4.6 mph - N/A   Clear
8:56 AM 71.1 °F 61.0 °F 70% 29.95 in 10.0 mi NNE 8.1 mph - N/A   Clear
9:56 AM 73.0 °F 62.1 °F 68% 29.96 in 10.0 mi NNE 5.8 mph - N/A   Clear
10:56 AM 73.9 °F 59.0 °F 59% 29.97 in 10.0 mi Variable 3.5 mph - N/A   Clear
11:56 AM 75.9 °F 54.0 °F 46% 29.98 in 10.0 mi North 6.9 mph - N/A   Scattered Clouds
12:56 PM 77.0 °F 53.1 °F 43% 29.99 in 10.0 mi North 6.9 mph - N/A   Partly Cloudy
1:56 PM 78.1 °F 37.9 °F 24% 29.99 in 10.0 mi NNW 9.2 mph - N/A   Partly Cloudy
2:56 PM 79.0 °F 55.0 °F 44% 29.98 in 10.0 mi NNW 10.4 mph - N/A   Partly Cloudy
3:56 PM 78.1 °F 52.0 °F 40% 29.99 in 10.0 mi North 11.5 mph 20.7 mph N/A   Mostly Cloudy
4:56 PM 78.1 °F 54.0 °F 43% 29.98 in 10.0 mi NNW 12.7 mph 20.7 mph N/A   Scattered Clouds
5:56 PM 78.1 °F 51.1 °F 39% 29.98 in 10.0 mi North 9.2 mph - N/A   Clear
6:56 PM 75.9 °F 54.0 °F 46% 30.00 in 10.0 mi NNE 11.5 mph - N/A   Clear
7:56 PM 73.0 °F 55.9 °F 55% 30.02 in 10.0 mi North 4.6 mph - N/A   Clear
8:56 PM 66.9 °F 57.9 °F 73% 30.02 in 10.0 mi NNE 3.5 mph - N/A   Clear
9:56 PM 64.0 °F 57.9 °F 80% 30.03 in 10.0 mi Calm Calm - N/A   Clear
10:56 PM 62.1 °F 57.9 °F 86% 30.03 in 10.0 mi Calm Calm - N/A   Clear
11:56 PM 60.1 °F 57.9 °F 93% 30.04 in 10.0 mi Calm Calm - N/A   Scattered Clouds